Theta_e
339 344 350 348 345 344 344 345 347 346 344 341 340 341 344 343 344 345 345 344 343 346 347 347 347 346 346 346 345 345 344 344 346 345 345 345 345 345 344 345 344 342 344
342 343 348 348 345 344 345 345 346 346 344 340 340 341 343 341 345 342 343 343 342 343 344 345 344 344 344 344 343 342 342 343 344 344 343 342 343 344 343 343 343 340 342
341 344 347 346 345 345 344 344 346 347 343 340 339 339 342 341 343 342 341 341 340 340 342 343 342 341 340 342 342 341 340 343 342 342 341 340 340 342 342 341 341 339 339
341 342 345 343 345 345 344 343 346 347 344 340 339 339 340 340 342 339 339 340 339 337 338 339 339 339 338 339 340 339 340 341 340 340 336 336 336 340 340 339 338 338 337
340 343 343 344 345 345 344 343 346 346 345 343 339 338 339 337 338 339 339 340 339 337 336 337 336 338 338 338 338 338 339 339 338 335 334 334 334 336 338 337 335 335 336
340 345 342 345 346 345 344 344 344 345 345 343 340 337 338 336 338 340 340 340 339 337 339 337 339 338 336 337 336 335 336 338 335 332 333 334 333 336 335 334 334 333 334
341 343 343 344 345 344 344 343 343 344 345 343 340 337 337 337 335 338 340 340 337 337 339 338 338 337 335 334 333 333 334 333 332 330 331 332 332 334 334 333 333 332 332
341 342 342 338 340 342 343 343 344 344 344 342 339 337 336 337 334 336 338 337 335 336 337 338 337 335 334 332 332 331 331 330 327 328 329 329 333 332 333 332 331 331 330
342 341 341 341 339 336 338 340 341 344 343 340 339 338 336 336 336 335 335 336 334 335 334 335 334 334 333 331 329 330 328 328 328 328 328 330 332 331 331 330 330 329 329
340 340 340 340 340 339 339 334 336 339 339 337 336 333 331 331 332 331 330 334 335 336 335 333 332 332 331 329 328 327 326 326 326 326 326 326 329 329 330 329 328 328 327
337 338 340 338 339 338 338 335 332 333 332 330 329 327 326 331 330 329 328 331 334 334 334 332 330 329 327 325 325 324 325 325 323 324 324 328 329 329 329 328 327 326 326
333 336 338 338 337 337 336 338 337 338 338 335 334 331 330 329 330 329 325 326 328 328 329 329 326 326 325 325 323 323 324 324 322 323 323 327 327 327 327 326 325 325 324
333 334 336 337 339 337 337 336 337 336 336 336 336 333 330 328 329 329 327 326 326 321 325 325 324 326 325 325 324 324 324 323 322 321 323 326 326 327 325 324 324 323 321
332 334 336 337 338 338 336 337 335 335 336 334 334 334 329 327 328 328 327 326 326 325 324 325 325 325 324 324 324 323 322 322 322 321 320 322 324 324 323 324 323 322 321
332 333 335 337 337 338 337 336 335 334 335 335 334 333 329 326 327 328 328 326 325 324 323 323 323 323 322 322 322 321 321 321 321 321 320 317 323 323 322 322 321 321 321
332 333 334 335 338 338 337 335 334 334 335 334 333 332 329 328 327 327 327 325 324 322 322 322 322 322 321 321 320 320 320 320 320 320 320 319 320 323 322 321 321 321 321
332 334 333 334 336 337 336 336 335 334 333 333 333 332 330 328 326 326 326 324 322 322 321 321 321 321 319 319 317 316 316 317 318 318 319 320 318 317 322 321 321 321 322
333 333 334 333 333 335 336 335 335 334 333 332 333 332 330 328 326 325 325 323 322 320 319 319 318 317 317 316 315 314 314 314 314 315 317 318 319 318 317 321 320 320 321
332 333 333 333 332 333 335 334 335 334 333 332 332 331 330 328 326 324 324 324 321 318 317 318 317 317 315 315 314 313 313 312 312 311 313 314 316 315 317 314 312 314 320
329 332 334 334 331 332 333 334 333 333 333 333 332 331 331 329 326 324 323 323 321 317 315 314 315 315 314 313 309 307 307 305 305 306 308 310 311 313 315 315 314 313 314
323 327 330 333 333 332 331 330 330 329 331 331 331 331 331 329 327 325 323 321 320 316 315 314 311 310 308 311 303 304 305 304 303 305 306 305 309 310 310 310 311 314 313
309 314 323 328 333 333 331 331 331 330 330 332 330 331 331 329 326 323 321 318 315 312 310 309 306 304 306 303 307 309 304 307 305 305 304 305 308 308 307 307 308 308 308
308 309 312 320 328 333 332 331 330 329 328 327 327 328 330 330 327 323 320 320 316 312 310 306 305 306 304 306 306 305 302 303 309 306 303 304 305 304 305 305 305 304 303
312 312 309 313 320 328 334 330 328 326 324 327 327 329 329 328 325 324 323 319 318 313 309 307 306 306 308 303 301 303 306 299 299 296 298 302 302 300 301 304 300 298 298
316 314 308 308 315 323 330 330 328 327 328 329 328 327 326 326 325 323 322 321 317 313 312 309 306 306 307 305 302 298 300 298 297 293 298 293 295 298 299 298 297 296 295
315 317 312 307 314 321 324 328 326 326 326 326 326 327 326 325 324 323 321 320 319 316 312 311 310 306 306 305 306 303 300 297 297 296 292 297 292 295 294 294 292 293 294
Wind_Speed
11 13 10 12 11 11 11 11 11 14 15 13 14 13 14 16 15 17 16 17 16 17 18 18 19 21 21 21 21 22 22 22 21 22 21 20 21 21 19 17 21 20 23
14 14 11 11 11 10 10 10 10 14 14 14 14 13 15 14 15 17 17 17 15 17 17 18 18 19 19 18 19 19 19 17 14 14 16 18 19 22 22 20 21 20 23
14 15 13 11 11 10 10 9 9 14 14 14 14 13 14 14 14 18 18 16 16 17 18 17 17 17 17 18 17 17 16 15 15 12 13 12 15 20 21 21 20 22 22
13 13 12 10 12 10 10 9 9 13 14 14 14 13 13 13 15 17 17 14 15 17 17 16 16 16 15 16 17 16 15 11 7 12 11 12 14 21 22 22 21 21 20
13 12 13 10 11 11 10 8 9 10 13 13 14 12 12 13 12 14 15 13 14 16 16 16 16 16 16 17 17 16 13 9 15 17 12 11 9 17 21 20 20 20 18
13 15 13 10 12 11 10 9 9 9 12 13 14 11 11 12 10 11 12 13 15 15 15 16 17 18 18 17 16 15 13 9 12 13 11 13 11 17 18 18 18 18 17
13 15 13 10 11 11 10 9 9 8 13 13 13 12 10 11 9 11 14 16 16 14 14 15 15 17 16 16 16 15 13 12 13 11 10 11 11 17 17 16 17 18 19
13 12 13 10 9 10 9 9 9 8 12 14 14 12 10 10 8 9 13 13 13 12 15 16 15 16 15 15 14 13 12 10 9 11 8 8 11 14 16 16 17 17 17
13 10 12 12 10 8 8 8 9 8 12 14 13 12 9 9 9 8 12 10 11 12 12 14 14 14 14 13 12 11 10 10 14 8 11 7 13 14 15 14 16 16 16
12 11 12 10 12 11 9 6 8 10 11 12 12 11 10 9 9 8 8 9 11 12 13 12 12 12 13 12 10 7 4 4 12 8 7 7 12 13 15 14 14 15 15
5 11 12 8 11 12 10 8 7 8 9 12 11 10 10 8 8 9 10 9 11 12 12 12 11 10 12 9 7 5 6 5 8 5 6 7 11 13 14 14 14 14 13
11 7 8 9 9 10 9 11 9 9 9 8 8 10 6 8 6 9 9 11 11 12 11 10 7 5 6 5 3 3 4 7 5 4 5 6 10 11 13 13 13 12 12
12 8 9 8 8 8 8 8 5 6 6 5 8 6 6 6 6 6 5 3 4 5 4 5 5 3 2 1 2 4 4 5 5 4 6 7 9 12 12 11 12 10 9
13 12 10 10 7 8 7 8 7 6 6 6 7 8 6 5 7 6 6 7 5 4 3 4 2 2 3 2 3 3 3 3 4 4 5 4 6 8 9 9 10 10 9
14 11 11 10 9 8 6 7 7 7 6 7 7 8 7 6 6 6 6 6 6 5 5 4 4 4 3 3 3 2 2 3 3 3 4 5 3 6 7 8 7 7 8
14 15 12 11 11 10 8 8 7 7 8 7 7 8 9 6 6 6 6 6 6 6 5 5 5 5 4 4 3 3 2 2 2 3 5 4 3 5 8 7 8 8 9
12 14 14 13 11 11 11 9 7 6 8 7 7 9 10 8 8 8 6 6 6 5 5 5 5 5 5 4 5 3 2 1 2 3 3 4 4 1 5 9 9 10 10
14 15 15 12 12 12 11 9 7 6 6 7 8 8 11 10 9 8 6 7 6 5 6 6 5 5 5 5 5 5 4 4 5 5 4 4 4 5 3 6 9 11 11
14 15 14 15 15 14 12 10 9 9 7 6 8 8 11 12 11 8 6 6 8 6 7 6 6 6 6 6 5 5 5 5 5 5 7 6 6 4 6 7 3 4 11
13 14 16 14 16 15 10 9 7 7 7 6 7 8 11 10 12 9 7 8 7 6 6 7 8 7 6 7 5 4 5 5 5 6 6 6 6 7 6 5 5 6 9
13 15 17 16 17 10 10 9 8 8 8 6 6 12 12 11 11 11 6 7 9 8 8 8 5 7 6 6 3 5 7 8 9 8 7 7 9 9 8 7 5 6 7
11 14 15 17 16 14 8 8 7 8 7 9 7 8 11 13 11 10 10 8 8 5 6 8 6 3 3 6 4 1 3 6 10 10 8 9 11 8 9 10 9 7 6
9 10 11 14 15 14 13 7 4 3 3 6 8 8 9 11 11 11 11 10 10 9 9 9 10 10 5 7 10 4 3 7 2 5 12 9 10 8 9 10 10 10 8
4 5 8 11 12 12 15 11 10 9 8 6 7 8 7 10 12 13 12 9 10 8 9 10 8 9 7 8 5 10 9 3 2 3 2 7 9 11 10 8 8 8 9
4 3 4 9 10 10 10 12 9 10 8 6 7 10 10 8 10 11 11 11 9 8 10 10 10 12 11 9 8 2 6 2 4 3 6 3 1 6 8 6 6 7 8
6 6 3 4 7 7 10 12 10 9 9 6 5 7 6 7 7 10 11 11 11 10 10 11 12 12 11 9 7 8 6 4 4 7 7 6 4 3 4 4 7 7 7
Wind_Direction
138 128 129 122 119 111 104 98 95 99 92 84 81 80 74 77 77 86 79 75 71 75 77 77 77 77 73 73 73 73 72 72 75 73 71 70 70 71 67 68 71 73 71
133 135 130 123 116 112 110 104 98 103 95 86 85 84 80 77 79 84 79 75 73 73 76 74 73 74 75 75 75 72 71 67 67 84 87 76 72 72 70 69 70 72 66
136 127 133 121 117 117 109 107 100 108 98 95 89 86 82 79 82 85 77 75 77 77 77 78 75 72 72 70 73 74 75 71 74 67 69 73 74 74 74 71 70 72 68
133 147 127 122 124 120 116 113 107 113 106 102 93 90 86 81 79 84 83 79 80 84 81 79 78 83 80 70 73 75 66 54 80 79 73 67 74 71 68 67 71 73 74
141 132 123 129 127 126 123 116 106 112 116 105 100 94 87 86 88 88 89 84 84 82 85 85 88 87 86 83 80 72 55 35 44 60 68 72 72 72 70 68 71 69 68
141 114 125 135 131 129 123 115 108 107 120 111 104 98 95 92 73 78 92 91 80 83 88 91 92 89 86 82 75 58 33 45 76 65 68 71 74 77 79 77 79 77 77
150 120 142 137 133 130 128 121 120 116 128 114 110 107 102 92 78 70 87 91 87 81 78 97 94 93 86 78 71 53 31 25 92 85 72 76 74 79 79 81 82 79 77
143 132 136 136 133 133 130 122 116 115 131 119 115 115 111 99 87 62 83 77 78 90 77 85 83 89 84 78 69 50 27 2 69 79 96 83 85 83 85 80 80 81 81
137 151 150 151 142 124 127 125 116 108 123 124 121 115 104 91 93 70 76 90 100 102 97 91 89 88 87 82 71 54 31 356 67 56 72 72 78 83 85 89 85 85 84
148 175 155 155 160 156 150 122 117 112 113 115 113 111 100 94 95 87 102 95 98 90 100 105 96 89 89 83 71 58 52 7 79 78 68 75 79 85 89 89 89 90 90
178 178 153 175 166 159 155 139 121 108 107 112 118 127 149 133 143 152 79 94 89 87 88 88 93 97 94 76 53 14 323 66 76 60 78 78 94 95 93 92 93 93 94
183 183 178 176 177 166 160 157 163 150 160 166 156 169 160 149 141 110 80 67 76 76 77 84 111 146 187 133 121 231 73 67 78 70 77 92 100 105 102 102 101 99 103
185 180 186 189 181 172 167 171 166 168 177 174 172 174 151 143 142 146 129 128 125 135 136 153 167 205 84 79 61 83 97 147 90 69 81 82 109 111 111 113 117 112 108
192 190 191 192 184 188 181 183 177 183 184 181 182 170 170 163 172 157 161 148 180 196 143 172 154 122 136 119 120 118 97 83 109 112 89 53 112 123 127 124 124 128 124
194 197 195 196 186 189 192 195 189 190 191 189 180 180 184 180 180 173 169 166 177 168 180 173 156 160 151 152 142 138 151 120 124 105 108 38 115 140 142 142 140 147 146
201 197 197 198 195 198 192 204 197 197 191 190 188 186 198 187 186 182 177 181 178 184 179 177 170 167 166 164 162 157 167 166 177 155 146 133 51 166 170 170 174 171 167
205 201 200 198 199 194 194 206 203 200 200 196 198 192 194 197 191 187 183 187 184 184 179 178 175 171 172 177 166 175 185 203 216 210 214 170 176 104 211 193 193 188 187
204 207 195 201 199 202 197 196 200 203 200 200 203 195 198 199 196 197 188 191 177 175 186 184 183 186 189 190 186 191 196 202 209 222 221 218 202 198 217 247 216 213 205
208 207 205 202 206 203 203 202 200 198 203 205 208 202 200 200 200 199 197 194 176 186 193 190 194 198 193 199 201 202 213 217 215 227 228 228 225 221 208 181 238 277 228
220 215 209 198 210 207 201 204 200 202 204 208 207 207 199 200 199 203 201 194 182 194 192 197 197 204 206 203 206 227 224 239 235 235 238 231 244 229 238 231 206 221 225
224 220 223 211 197 204 198 200 196 195 196 209 221 212 208 201 201 199 203 206 188 201 203 194 189 190 207 200 160 226 241 234 232 228 226 223 227 220 228 230 231 227 213
235 233 226 225 213 194 205 205 206 195 204 209 207 222 209 205 202 201 187 192 193 194 190 194 178 157 202 175 229 42 261 217 225 225 218 226 223 215 223 223 227 231 239
240 241 235 234 225 203 188 197 193 177 160 195 201 215 212 203 203 208 198 196 199 197 199 193 198 193 190 192 214 207 212 236 193 185 221 222 224 226 230 224 217 226 226
290 280 259 244 236 223 182 184 200 208 207 205 203 206 201 201 198 209 217 205 201 201 204 206 196 211 213 211 214 242 267 357 244 272 252 227 225 222 238 228 232 232 229
1 317 242 231 228 225 220 186 201 214 219 208 190 188 198 203 203 204 213 215 203 206 217 208 203 209 215 220 216 138 244 225 243 238 267 285 215 243 242 247 246 240 238
34 37 57 211 214 220 216 214 203 218 220 215 192 197 197 202 204 208 205 213 214 214 216 214 218 217 221 225 229 224 204 203 224 216 246 262 210 218 242 232 241 241 248